Date,TemperatureHighF,TemperatureAvgF,TemperatureLowF,DewpointHighF,DewpointAvgF,DewpointLowF,HumidityHigh,HumidityAvg,HumidityLow,PressureMaxIn,PressureMinIn,WindSpeedMaxMPH,WindSpeedAvgMPH,GustSpeedMaxMPH,PrecipitationSumIn
2014-1-1,52.5,38.9,29.5,35.1,28.8,23.0,96,71,33,30.45,30.17,5,1,10,0.00
2014-1-2,48.9,43.8,38.0,46.9,40.4,33.6,98,88,74,30.17,29.58,10,1,19,0.33
2014-1-3,43.6,30.2,20.6,40.0,13.8,6.1,87,52,32,30.51,29.65,18,8,27,0.01
2014-1-4,38.3,29.3,16.5,25.3,17.3,9.6,91,64,38,30.54,30.29,4,0,6,0.00
2014-1-5,60.9,48.7,37.3,58.7,42.2,24.9,98,79,60,30.29,29.78,6,2,13,0.00
2014-1-6,61.3,46.0,18.4,59.6,35.1,-6.6,99,69,32,30.21,29.63,16,9,26,0.13
2014-1-7,25.4,17.2,9.9,8.1,-4.9,-11.5,69,38,26,30.55,30.21,10,5,22,0.00
2014-1-8,42.6,26.3,12.9,17.0,10.5,4.6,89,56,25,30.65,30.51,5,1,9,0.00
2014-1-9,53.9,35.6,23.0,28.8,19.3,3.3,86,58,13,30.60,30.49,4,0,7,0.00
2014-1-10,57.0,44.7,39.1,57.0,40.7,28.1,100,86,61,30.49,30.08,5,2,7,0.98
2014-1-11,68.8,60.5,55.0,66.5,59.6,52.5,100,97,85,30.08,29.58,20,5,28,0.26
2014-1-12,58.6,49.0,34.9,53.1,35.8,30.9,94,63,36,30.19,29.66,10,4,17,0.01
2014-1-13,61.0,45.9,29.0,43.5,35.8,28.0,99,71,44,30.21,29.97,10,2,19,0.00
2014-1-14,52.8,48.2,35.5,51.9,46.1,34.7,99,93,71,29.99,29.79,9,1,20,0.29
2014-1-15,58.7,45.1,33.8,48.7,39.7,31.9,100,83,54,30.00,29.84,12,2,17,0.01
2014-1-16,44.8,36.6,28.7,34.7,30.3,24.1,95,79,48,30.05,29.92,8,4,13,0.02
2014-1-17,55.3,40.8,25.7,38.7,30.3,23.2,95,69,40,30.05,29.85,8,3,17,0.01
2014-1-18,47.7,34.7,25.4,37.2,18.4,5.9,74,53,29,30.06,29.83,11,5,21,0.00
2014-1-19,54.1,40.4,27.0,28.9,23.1,17.5,82,52,31,30.05,29.89,10,3,19,0.00
2014-1-20,64.2,45.8,28.2,31.3,28.0,24.0,87,55,23,29.93,29.78,9,3,17,0.00
2014-1-21,53.5,37.8,26.7,35.3,30.0,22.5,95,76,43,29.85,29.53,14,4,21,0.03
2014-1-22,31.0,25.0,17.2,23.0,12.7,3.0,87,62,33,30.14,29.84,13,5,19,0.01
2014-1-23,39.2,26.5,14.6,18.3,9.9,0.4,91,55,27,30.46,30.13,11,4,18,0.00
2014-1-24,27.6,19.3,12.4,0.9,-3.5,-8.5,50,37,21,30.65,30.31,12,4,17,0.00
2014-1-25,41.3,30.1,17.3,17.7,7.5,-0.4,47,39,30,30.30,29.65,12,6,21,0.00
2014-1-26,51.6,39.8,22.2,27.7,19.4,14.3,81,47,24,30.00,29.82,9,3,20,0.00
2014-1-27,66.4,50.6,34.4,36.6,30.1,-0.2,62,47,22,30.11,29.77,14,6,21,0.00
2014-1-28,34.3,26.9,17.0,16.0,4.5,-5.5,89,43,22,30.35,30.12,11,7,17,0.00
2014-1-29,27.8,21.0,13.5,14.5,10.2,2.5,89,65,37,30.41,30.20,9,4,14,0.03
2014-1-30,37.2,20.4,3.7,15.7,7.6,0.2,88,63,27,30.47,30.26,6,1,10,0.23
2014-1-31,52.0,30.9,13.1,22.5,16.1,10.5,91,61,23,30.26,30.15,4,1,7,0.08
2014-2-1,58.1,39.0,21.4,42.4,28.1,19.2,98,71,23,30.27,30.11,4,1,8,0.06
2014-2-2,63.9,49.6,42.8,49.9,45.9,42.3,100,89,54,30.12,30.02,10,3,14,0.01
2014-2-3,62.9,50.4,40.3,62.3,48.1,36.1,99,92,81,30.29,29.90,15,6,21,0.22
2014-2-4,40.8,39.3,38.5,38.4,36.4,34.2,99,89,81,30.43,30.11,9,5,16,0.50
2014-2-5,51.9,43.8,38.2,50.1,42.0,30.5,100,94,62,30.10,29.80,12,3,19,0.07
2014-2-6,42.6,38.1,32.5,30.6,25.6,21.4,82,61,47,30.35,30.09,10,4,14,0.01
2014-2-7,52.5,40.1,33.1,33.4,30.8,28.8,91,72,41,30.37,30.26,4,1,7,0.00
2014-2-8,50.5,38.7,31.0,31.9,30.0,27.0,90,73,44,30.31,30.14,5,1,9,0.00
2014-2-9,54.5,39.5,27.0,40.5,33.1,25.5,97,80,51,30.21,29.99,7,1,14,0.00
2014-2-10,42.3,37.5,33.8,37.8,33.0,26.6,97,85,55,30.27,30.01,9,2,14,0.08
2014-2-11,34.9,31.4,27.9,34.1,22.0,15.4,97,69,53,30.43,30.26,10,4,14,0.00
2014-2-12,31.8,26.2,23.2,31.3,19.8,12.4,98,78,53,30.46,29.80,15,7,19,0.07
2014-2-13,35.2,33.5,31.8,34.7,33.1,31.3,100,98,94,29.79,29.43,6,2,10,0.55
2014-2-14,58.9,43.1,30.9,35.2,30.9,26.0,92,66,29,29.81,29.66,9,4,14,0.30
2014-2-15,47.0,40.1,32.4,40.7,30.8,13.9,98,73,33,30.07,29.55,18,5,32,0.31
2014-2-16,52.8,39.3,30.4,31.7,24.4,16.6,85,56,36,30.19,30.02,8,2,12,0.00
2014-2-17,46.4,35.8,26.0,27.4,23.9,19.8,92,65,37,30.42,30.19,9,3,14,0.00
2014-2-18,66.3,47.7,36.0,40.5,29.0,17.1,77,54,16,30.23,30.12,7,2,12,0.00
2014-2-19,72.1,56.3,38.3,59.9,51.4,30.7,100,85,60,30.11,29.89,12,4,19,0.52
2014-2-20,71.6,60.4,49.2,61.6,48.9,33.6,98,68,39,30.23,30.00,10,4,19,0.00
2014-2-21,71.3,60.3,41.2,64.1,56.5,39.9,98,88,67,30.04,29.80,16,6,36,0.68
2014-2-22,65.2,47.8,34.9,39.6,32.1,22.1,98,62,20,30.22,30.05,6,1,9,0.01
2014-2-23,68.9,50.7,31.8,42.5,36.4,30.3,97,64,29,30.13,29.88,9,2,15,0.00
2014-2-24,61.5,51.8,37.6,45.6,28.2,16.0,75,44,20,30.16,29.88,12,5,19,0.00
2014-2-25,54.4,40.4,28.4,28.6,25.2,21.5,84,57,31,30.15,29.97,8,2,13,0.00
2014-2-26,47.7,38.3,31.3,30.6,26.1,19.6,77,63,38,30.00,29.80,7,2,14,0.00
2014-2-27,56.3,39.7,23.6,21.6,15.1,6.8,75,40,17,30.03,29.75,11,4,17,0.00
2014-2-28,45.7,35.6,27.0,19.6,13.5,7.7,58,41,25,30.36,30.04,11,6,16,0.00
2014-3-1,56.9,40.2,29.7,36.2,24.9,12.7,86,55,40,30.39,30.23,6,2,10,0.00
2014-3-2,71.8,52.9,30.4,47.7,39.6,28.9,99,65,36,30.26,29.90,10,3,17,0.00
2014-3-3,61.0,39.3,20.5,47.7,34.4,13.6,95,83,61,30.33,29.83,16,8,25,0.37
2014-3-4,39.2,28.0,16.4,17.4,13.0,7.8,75,55,36,30.39,30.23,11,6,17,0.05
2014-3-5,45.7,36.9,31.8,21.9,17.7,11.5,65,46,31,30.31,30.16,6,3,10,0.00
2014-3-6,43.1,35.5,31.0,32.4,25.1,14.9,97,68,49,30.40,30.14,16,10,26,0.70
2014-3-7,37.0,35.2,33.1,36.5,34.3,32.3,98,96,89,30.13,29.88,16,11,26,1.51
2014-3-8,68.8,49.3,28.8,45.6,38.1,27.3,98,69,39,30.09,29.96,10,2,12,0.00
2014-3-9,67.1,52.6,38.6,46.3,38.3,31.1,97,64,27,30.09,29.97,10,3,18,0.00
2014-3-10,74.6,54.4,31.9,43.0,32.7,24.7,99,54,16,30.03,29.79,9,2,14,0.00
2014-3-11,80.5,63.7,42.9,44.2,39.5,34.6,84,45,20,29.81,29.65,7,2,16,0.00
2014-3-12,71.6,59.6,44.9,59.5,50.0,28.3,94,71,51,29.69,29.20,19,6,31,0.22
2014-3-13,45.1,39.1,28.5,28.0,14.1,4.1,66,38,19,30.25,29.60,18,9,30,0.00
2014-3-14,60.9,43.1,22.9,36.3,21.5,15.0,92,50,19,30.36,30.10,10,4,17,0.00
2014-3-15,74.0,59.6,49.5,40.4,37.2,32.0,68,47,23,30.10,29.93,11,5,19,0.00
2014-3-16,56.0,46.7,37.8,44.0,38.2,31.7,96,75,40,30.05,29.87,10,3,17,0.14
2014-3-17,37.3,33.6,31.6,36.5,32.2,30.3,97,95,90,30.01,29.85,12,7,18,0.45
2014-3-18,37.8,34.3,30.7,37.0,33.4,29.7,97,97,95,30.19,29.95,11,3,17,0.15
2014-3-19,49.5,41.8,35.8,47.0,40.6,35.1,99,95,90,30.19,30.00,7,3,14,0.06
2014-3-20,67.8,52.8,41.1,47.8,37.2,24.9,100,64,21,30.04,29.93,12,4,19,0.01
2014-3-21,71.3,52.3,30.9,38.7,31.6,26.4,95,52,22,30.17,30.04,7,2,16,0.00
2014-3-22,78.1,61.8,48.0,46.7,40.4,34.4,78,49,23,30.08,29.91,10,4,14,0.00
2014-3-23,58.0,47.1,39.2,44.5,40.1,34.4,94,79,42,30.16,29.92,13,4,19,0.15
2014-3-24,51.0,40.4,32.2,38.2,26.0,18.3,96,61,29,30.32,30.13,9,3,17,0.01
2014-3-25,48.2,39.6,34.9,39.0,31.7,23.9,92,74,47,30.13,29.77,11,4,17,0.06
2014-3-26,47.9,37.8,29.7,30.9,18.0,10.1,87,48,22,30.35,29.95,13,6,24,0.00
2014-3-27,60.7,42.4,22.9,35.0,22.2,15.9,91,52,21,30.50,30.31,9,3,16,0.00
2014-3-28,70.8,56.4,42.5,60.8,49.6,35.8,97,79,57,30.31,30.12,12,3,19,0.13
2014-3-29,66.1,61.9,58.0,65.2,61.4,58.0,100,98,93,30.12,29.55,7,2,14,1.20
2014-3-30,63.1,49.0,41.5,63.1,38.3,30.6,100,68,48,29.93,29.54,17,9,29,0.08
2014-3-31,72.8,55.1,41.1,38.5,28.6,21.9,70,41,17,30.10,29.94,11,5,14,0.00
2014-4-1,81.6,59.1,37.5,44.2,38.0,32.6,96,54,18,30.16,29.99,6,1,12,0.00
2014-4-2,89.0,68.9,44.8,47.2,42.0,32.3,90,45,15,30.08,29.96,9,3,17,0.00
2014-4-3,80.3,65.4,51.0,55.0,48.7,42.5,81,57,36,30.07,29.89,7,2,12,0.00
2014-4-4,85.3,71.1,56.7,58.8,53.9,44.2,88,58,27,29.90,29.70,14,5,25,0.00
2014-4-5,73.3,66.0,55.9,57.5,42.2,30.7,78,44,24,30.07,29.76,11,5,16,0.00
2014-4-6,61.0,54.1,45.2,41.7,34.5,28.5,68,48,33,30.22,30.07,10,5,19,0.00
2014-4-7,62.7,52.2,44.8,61.5,48.6,30.9,100,89,43,30.11,29.68,9,4,17,0.91
2014-4-8,68.3,63.8,55.4,63.2,54.6,41.9,95,74,47,29.67,29.58,10,4,17,0.00
2014-4-9,69.8,58.2,47.1,49.0,42.3,33.6,90,59,29,30.10,29.67,11,4,17,0.02
2014-4-10,76.7,59.3,38.5,48.1,41.1,34.9,99,59,26,30.28,30.10,10,3,16,0.00
2014-4-11,80.7,67.6,53.5,50.8,45.9,42.2,70,48,27,30.22,30.03,12,5,19,0.00
2014-4-12,82.6,69.2,52.2,54.8,51.0,46.3,89,55,29,30.21,30.09,7,2,12,0.00
2014-4-13,83.0,70.6,55.6,63.4,56.6,52.7,95,63,39,30.22,30.06,9,4,14,0.00
2014-4-14,79.2,67.8,58.3,64.4,59.4,54.8,97,76,50,30.11,29.85,12,4,18,0.01
2014-4-15,71.6,62.4,42.3,68.2,60.1,36.3,100,92,79,30.01,29.59,17,6,21,1.61
2014-4-16,56.2,44.2,33.8,36.3,27.8,20.7,79,55,30,30.48,30.01,14,7,24,0.00
2014-4-17,64.7,48.6,32.7,43.3,36.0,28.9,90,65,37,30.58,30.42,11,4,18,0.00
2014-4-18,65.2,54.4,38.9,48.9,41.8,36.8,92,64,45,30.49,30.25,11,4,14,0.08
2014-4-19,53.5,50.0,45.5,50.0,46.7,43.8,98,89,70,30.25,30.15,14,7,19,0.56
2014-4-20,70.1,58.1,50.8,50.6,41.6,33.5,75,55,44,30.26,30.18,15,10,24,0.01
2014-4-21,76.0,58.0,42.6,45.1,37.4,25.2,81,52,17,30.22,29.93,9,4,12,0.00
2014-4-22,84.3,65.0,45.4,57.0,49.4,43.0,96,62,28,29.93,29.64,9,2,14,0.00
2014-4-23,72.3,63.8,53.5,57.5,41.5,26.4,89,50,20,29.97,29.66,15,6,21,0.00
2014-4-24,72.7,57.0,39.9,44.9,37.8,29.2,91,53,25,30.16,29.98,5,1,12,0.00
2014-4-25,82.8,62.8,46.8,68.1,56.1,43.2,97,80,49,30.02,29.62,14,3,26,0.55
2014-4-26,81.4,67.6,51.7,56.0,48.0,40.5,90,54,26,30.00,29.81,9,3,18,0.01
2014-4-27,84.7,70.8,55.1,58.4,51.2,45.4,77,52,28,30.01,29.89,6,3,10,0.00
2014-4-28,68.4,60.1,53.9,60.8,52.9,43.8,91,77,68,30.01,29.90,9,4,17,0.00
2014-4-29,70.8,59.6,53.3,64.3,57.6,51.9,100,93,78,30.03,29.92,8,4,11,0.35
2014-4-30,79.6,71.6,65.0,73.3,69.7,64.4,100,94,81,30.03,29.89,10,5,17,1.10
2014-5-1,80.5,72.1,65.8,69.4,64.9,58.9,96,80,53,29.89,29.78,9,5,17,0.00
2014-5-2,69.9,62.3,52.5,61.6,48.4,37.4,93,63,38,29.96,29.82,7,2,17,0.00
2014-5-3,78.5,64.7,52.6,56.3,49.5,40.6,96,63,28,29.90,29.82,7,2,13,0.00
2014-5-4,85.1,69.9,51.0,54.6,49.0,42.0,87,51,28,29.99,29.80,8,3,20,0.00
2014-5-5,74.9,64.3,55.9,58.6,53.3,47.6,92,69,50,30.03,29.86,8,2,12,0.00
2014-5-6,84.3,69.2,57.5,65.3,58.6,53.4,88,71,43,29.98,29.84,5,2,7,0.00
2014-5-7,81.2,68.1,57.6,67.9,62.6,55.3,96,83,62,30.14,29.99,4,1,9,0.00
2014-5-8,91.4,75.5,57.2,68.0,58.8,50.3,100,63,25,30.16,30.05,9,2,17,0.00
2014-5-9,91.0,75.5,59.8,68.9,61.8,-99.9,96,67,36,30.14,30.00,9,3,19,0.08
2014-5-10,87.2,75.4,67.4,72.6,63.9,55.8,91,69,38,30.11,29.98,11,4,17,0.00
2014-5-11,88.6,74.2,61.5,66.7,60.1,-99.9,95,66,32,30.14,30.03,7,2,11,0.00
2014-5-12,92.1,76.3,58.4,72.0,62.9,56.7,98,68,33,30.17,30.08,6,1,10,0.00
2014-5-13,94.3,79.9,65.0,73.6,66.8,60.7,99,68,35,30.13,30.05,6,2,10,0.00
2014-5-14,90.7,79.2,67.9,72.2,65.8,-99.9,93,67,41,30.15,30.04,8,3,14,0.00
2014-5-15,79.8,71.1,65.6,71.5,68.1,62.6,100,91,71,30.11,29.84,11,4,16,4.46
2014-5-16,75.6,66.7,57.5,70.1,56.5,45.7,100,73,38,30.00,29.79,9,4,19,0.31
2014-5-17,72.5,62.0,48.6,52.8,43.9,36.8,79,54,32,30.16,30.01,10,4,18,0.00
2014-5-18,70.3,60.6,50.7,53.0,47.4,-99.9,90,65,42,30.23,30.16,9,2,14,0.00
2014-5-19,76.1,60.5,45.5,55.8,46.2,38.2,99,65,28,30.32,30.21,5,1,10,0.00
2014-5-20,81.1,65.8,46.8,61.5,53.4,45.7,99,68,40,30.29,30.07,9,3,15,0.00
2014-5-21,88.4,75.9,64.5,68.0,61.1,56.1,79,62,40,30.08,29.90,8,3,17,0.00
2014-5-22,90.1,79.2,68.1,68.0,63.3,-99.9,88,61,40,29.92,29.83,9,3,15,0.00
2014-5-23,84.7,74.5,63.2,66.9,60.9,52.1,97,66,33,29.99,29.88,8,2,14,0.00
2014-5-24,82.0,69.8,55.0,56.2,50.9,46.6,85,53,32,30.12,29.98,9,3,14,0.00
2014-5-25,82.8,69.7,54.8,61.3,56.5,51.3,97,67,36,30.18,30.10,4,1,7,0.00
2014-5-26,89.0,75.5,60.7,69.6,63.0,58.6,96,68,42,30.20,30.04,8,3,17,0.00
2014-5-27,91.4,76.3,69.1,72.8,67.7,-99.9,95,79,47,30.08,29.93,12,3,19,0.03
2014-5-28,92.3,79.1,66.4,70.7,67.1,63.4,99,70,41,29.98,29.90,6,2,11,0.00
2014-5-29,78.5,70.6,67.1,68.6,65.5,62.7,93,84,71,30.10,29.96,7,3,11,0.00
2014-5-30,73.7,68.8,63.5,69.2,65.7,62.0,96,90,80,30.13,30.03,8,1,12,0.01
2014-5-31,84.1,71.3,61.0,66.3,59.7,53.6,99,71,36,30.22,30.10,9,3,12,0.00
2014-6-1,79.9,69.1,52.8,56.0,51.8,47.3,97,58,33,30.34,30.21,8,2,12,0.00
2014-6-2,83.8,67.5,49.2,57.4,53.0,47.3,96,64,34,30.30,30.10,5,1,8,0.00
2014-6-3,88.6,71.9,55.6,73.3,62.0,54.2,97,75,40,30.11,29.91,15,2,22,0.36
2014-6-4,92.1,76.4,65.3,74.2,69.3,63.1,100,82,40,29.91,29.75,14,1,19,0.10
2014-6-5,91.0,81.7,73.3,73.5,69.7,65.1,91,68,46,29.82,29.67,10,3,17,0.00
2014-6-6,84.3,75.8,67.9,71.0,66.4,62.3,96,74,52,29.95,29.81,7,2,12,0.00
2014-6-7,86.5,73.6,60.5,68.5,63.3,59.2,98,73,42,30.03,29.93,5,1,10,0.00
2014-6-8,88.2,75.6,63.7,68.6,64.2,61.9,97,70,46,29.98,29.86,7,3,14,0.00
2014-6-9,90.3,79.2,69.9,75.3,68.9,62.9,95,72,52,29.91,29.82,11,1,18,1.12
2014-6-10,95.6,80.8,68.4,77.5,71.2,65.3,100,77,38,29.93,29.87,6,1,11,0.07
2014-6-11,93.8,78.5,69.1,77.1,71.0,65.8,100,81,48,29.95,29.82,13,2,19,1.58
2014-6-12,85.1,75.0,68.8,76.6,71.4,68.4,100,89,70,29.92,29.80,6,1,12,0.28
2014-6-13,89.9,75.8,67.1,76.3,69.9,66.4,100,84,50,29.86,29.76,9,2,14,0.18
2014-6-14,87.4,76.2,64.5,72.0,65.5,54.4,97,72,36,30.06,29.85,6,3,12,0.00
2014-6-15,87.6,74.6,60.7,71.1,66.1,58.7,99,77,50,30.17,30.05,5,1,7,0.01
2014-6-16,94.0,81.9,68.4,74.7,70.4,67.2,98,71,44,30.16,30.04,5,2,14,0.00
2014-6-17,96.1,83.1,73.9,77.8,69.8,-99.9,87,67,41,30.13,30.02,10,3,12,0.00
2014-6-18,98.2,85.4,74.6,76.4,70.0,65.8,84,62,36,30.08,30.00,6,3,14,0.00
2014-6-19,97.5,85.2,73.9,77.1,69.7,66.1,83,62,38,30.07,29.95,11,2,12,0.05
2014-6-20,91.8,78.4,70.6,75.1,71.6,68.6,99,82,53,30.02,29.90,10,1,22,0.50
2014-6-21,90.7,78.2,69.6,77.3,73.0,69.6,100,86,54,29.93,29.78,6,1,10,0.03
2014-6-22,84.3,74.8,70.3,73.7,71.2,69.0,99,89,64,29.97,29.79,8,3,12,0.01
2014-6-23,86.5,75.4,64.3,69.8,66.3,61.9,98,76,47,30.12,29.96,6,2,10,0.00
2014-6-24,87.6,76.7,64.8,73.2,68.6,62.6,96,77,53,30.13,30.00,5,1,10,0.00
2014-6-25,92.3,81.0,74.6,76.8,72.7,-99.9,97,79,52,30.02,29.85,7,2,13,0.17
2014-6-26,93.4,81.7,70.9,74.3,70.8,66.6,100,73,43,29.97,29.87,8,2,11,0.96
2014-6-27,87.4,75.7,71.6,77.6,72.6,70.6,100,91,62,30.10,29.95,8,2,14,0.21
2014-6-28,87.6,77.2,69.4,72.4,69.2,58.4,99,78,57,30.21,30.10,8,3,14,0.00
2014-6-29,87.4,74.2,60.4,66.2,62.1,57.5,96,69,41,30.23,30.10,5,1,10,0.00
2014-6-30,91.2,78.4,65.2,73.1,67.2,63.4,96,71,46,30.12,29.95,6,2,10,0.00
2014-7-1,93.4,81.6,71.8,74.5,68.8,-99.9,89,69,50,29.99,29.86,7,2,12,0.00
2014-7-2,97.1,85.7,74.9,77.5,72.3,68.7,82,66,45,29.96,29.88,8,4,16,0.00
2014-7-3,91.8,80.1,73.7,77.7,74.2,67.0,96,83,54,30.00,29.83,17,4,30,0.52
2014-7-4,87.6,78.4,70.6,72.5,65.0,-99.9,96,67,42,30.14,29.83,10,6,19,0.00
2014-7-5,86.5,74.0,63.2,60.7,54.7,47.5,82,54,27,30.27,30.15,10,3,16,0.00
2014-7-6,88.8,73.6,58.1,67.8,61.8,56.7,98,70,40,30.19,30.02,11,2,27,0.00
2014-7-7,95.9,81.5,69.6,73.3,67.9,60.4,95,67,33,30.05,29.90,9,4,31,0.00
2014-7-8,98.0,85.8,73.9,74.9,67.9,56.5,90,60,27,30.00,29.83,11,6,32,0.00
2014-7-9,95.4,80.9,74.9,77.2,71.2,66.8,95,74,40,30.01,29.90,12,3,25,0.21
2014-7-10,87.6,76.7,70.6,77.3,72.8,69.3,100,89,63,30.09,29.98,10,2,14,1.78
2014-7-11,86.1,76.3,70.9,73.3,71.4,69.6,100,86,61,30.19,30.08,4,1,7,0.00
2014-7-12,89.7,78.3,66.9,74.1,69.9,66.2,100,78,49,30.21,30.12,5,1,8,0.00
2014-7-13,92.9,81.7,69.9,76.0,71.3,65.9,99,74,42,30.13,29.99,7,2,10,0.00
2014-7-14,96.8,84.1,74.9,77.7,73.9,71.6,94,74,49,30.00,29.84,9,3,16,0.00
2014-7-15,91.4,79.6,70.3,78.6,74.4,69.4,100,85,59,29.87,29.71,13,3,17,2.16
2014-7-16,81.8,74.1,67.3,72.8,68.5,60.7,100,84,52,29.92,29.77,9,2,14,0.37
2014-7-17,86.3,73.6,61.2,68.9,63.8,59.6,99,74,45,30.09,29.92,4,1,8,0.00
2014-7-18,88.4,75.4,63.5,69.5,62.9,55.5,98,69,37,30.18,30.08,6,2,12,0.00
2014-7-19,84.5,73.8,66.4,66.0,63.8,60.2,89,72,47,30.16,30.07,7,2,10,0.00
2014-7-20,84.3,75.2,70.3,73.4,69.8,65.6,94,84,66,30.12,30.04,4,1,7,0.14
2014-7-21,79.9,75.8,71.6,76.2,74.0,70.7,99,94,85,30.15,30.04,4,1,7,0.10
2014-7-22,87.8,77.5,71.1,77.2,73.6,70.2,100,89,66,30.15,30.06,6,1,8,0.02
2014-7-23,94.5,81.6,72.1,77.8,73.5,71.2,100,79,50,30.08,29.89,7,2,12,0.00
2014-7-24,89.9,78.5,67.9,75.9,73.1,67.9,100,85,58,29.94,29.78,16,2,19,2.18
2014-7-25,85.5,74.4,65.2,73.0,68.8,65.2,100,85,57,30.06,29.94,7,2,12,0.01
2014-7-26,91.4,79.0,69.1,75.6,72.2,68.2,100,82,53,30.02,29.91,5,1,10,0.00
2014-7-27,88.2,78.4,72.7,78.0,73.7,70.5,99,86,64,29.96,29.73,11,1,28,0.46
2014-7-28,88.8,82.1,73.0,73.1,65.9,60.5,81,59,43,29.85,29.69,9,4,24,0.00
2014-7-29,84.3,74.0,65.6,64.9,61.0,56.6,90,66,42,29.98,29.83,7,2,10,0.00
2014-7-30,83.6,72.1,63.5,69.4,65.6,62.0,96,81,57,30.08,29.97,14,2,17,0.04
2014-7-31,83.4,74.6,66.1,71.9,68.9,65.5,99,84,60,30.13,30.06,4,1,7,0.02
2014-8-1,75.6,69.6,65.6,71.8,68.1,64.7,100,95,74,30.14,30.06,9,3,14,0.40
2014-8-2,71.1,67.7,65.0,69.8,67.3,65.0,100,99,90,30.12,30.05,6,2,10,1.24
2014-8-3,79.8,71.5,68.1,72.0,69.6,68.1,100,94,76,30.13,30.04,5,1,7,0.01
2014-8-4,86.3,75.3,67.3,72.8,69.8,66.7,100,85,58,30.10,30.01,6,2,10,0.00
2014-8-5,88.6,77.8,69.1,73.9,70.6,67.3,100,81,53,30.05,29.94,7,2,12,0.00
2014-8-6,90.7,80.4,71.3,72.3,68.8,58.6,97,72,35,29.97,29.87,7,1,12,0.00
2014-8-7,87.2,77.5,68.8,72.5,69.6,67.6,97,78,57,30.02,29.89,7,2,10,0.00
2014-8-8,81.6,74.8,67.9,71.5,69.0,66.7,100,83,63,30.11,30.01,5,1,10,0.00
2014-8-9,73.3,68.2,64.0,69.2,66.8,63.1,100,95,87,30.12,30.04,8,1,11,1.21
2014-8-10,82.4,72.2,65.5,72.2,68.4,65.5,100,89,63,30.11,30.03,5,2,10,0.36
2014-8-11,85.3,75.1,70.1,73.6,70.6,68.2,97,87,63,30.07,29.94,7,2,14,0.12
2014-8-12,88.2,76.3,69.9,77.3,72.9,69.5,100,90,65,29.96,29.75,12,2,17,1.86
2014-8-13,83.0,75.2,69.3,72.0,66.4,59.6,100,77,48,29.95,29.78,9,3,14,0.01
2014-8-14,84.7,72.6,59.3,64.5,60.2,54.0,97,68,39,30.04,29.92,6,2,10,0.00
2014-8-15,85.9,74.1,61.2,71.7,66.2,60.3,100,79,51,30.02,29.93,4,1,6,0.00
2014-8-16,89.5,78.5,69.3,72.3,68.6,65.6,96,75,48,30.02,29.94,4,1,7,0.00
2014-8-17,90.3,79.4,69.9,74.1,70.5,64.3,100,77,47,29.99,29.92,6,1,8,0.00
2014-8-18,89.0,77.8,71.3,76.6,73.4,71.0,100,88,61,29.92,29.75,8,1,17,1.07
2014-8-19,87.4,77.3,69.8,75.9,72.5,69.8,100,87,60,29.87,29.74,6,2,11,0.01
2014-8-20,90.3,77.4,72.1,77.5,73.3,70.5,100,88,60,30.01,29.85,7,1,11,0.41
2014-8-21,92.5,80.7,70.6,76.7,72.8,69.3,100,80,49,30.04,29.95,6,2,12,0.01
2014-8-22,92.3,81.6,72.5,76.0,74.1,71.9,99,80,54,30.00,29.92,8,2,13,0.00
2014-8-23,85.3,78.6,73.9,77.3,74.2,70.6,99,87,70,29.96,29.89,8,2,11,0.05
2014-8-24,82.0,73.2,66.0,70.9,67.5,61.7,96,83,59,30.09,29.95,14,5,17,0.00
2014-8-25,79.6,69.6,60.5,68.1,63.5,59.4,97,82,63,30.11,30.06,10,4,17,0.00
2014-8-26,83.4,69.5,60.1,67.6,63.0,59.2,100,82,52,30.14,30.06,9,3,13,0.01
2014-8-27,87.4,72.5,57.8,67.8,62.6,57.2,100,75,43,30.06,29.95,11,2,0,0.00
2014-8-28,92.3,77.7,63.9,76.3,69.5,63.0,100,79,50,29.99,29.91,5,1,7,0.00
2014-8-29,84.1,77.4,73.0,75.1,72.4,71.0,100,86,71,30.16,29.99,8,3,12,0.45
2014-8-30,90.3,78.9,69.4,75.8,71.6,68.1,97,81,57,30.21,30.08,86,1,86,0.00
2014-8-31,92.9,81.3,70.9,76.4,71.9,70.0,100,78,51,30.17,30.02,10,2,13,0.00
2014-9-1,95.1,83.1,74.2,78.2,72.7,68.1,98,75,43,30.09,29.99,5,1,11,0.00
2014-9-2,98.2,83.2,74.0,76.1,72.3,69.2,97,74,41,30.05,29.91,12,2,14,0.00
2014-9-3,93.6,81.3,72.5,75.1,70.8,67.8,97,74,45,30.11,29.95,8,2,11,0.00
2014-9-4,92.5,79.7,71.8,77.5,71.8,69.9,100,81,55,30.20,30.06,9,2,13,0.69
2014-9-5,91.2,80.4,72.8,80.5,73.8,69.5,100,83,51,30.18,30.06,5,1,10,0.01
2014-9-6,91.2,79.9,70.8,77.4,73.1,70.2,100,81,56,30.08,29.92,5,2,10,0.00
2014-9-7,79.8,75.3,70.4,74.2,71.5,68.6,97,88,80,30.09,29.94,9,4,13,0.02
2014-9-8,71.8,70.0,68.9,71.8,69.7,67.5,100,99,91,30.09,30.00,8,4,14,2.91
2014-9-9,75.8,70.5,66.6,70.6,68.7,66.6,100,94,82,30.09,30.01,9,5,12,0.03
2014-9-10,83.0,73.8,67.4,72.2,68.9,66.2,99,86,61,30.13,30.01,3,1,7,0.00
2014-9-11,89.5,77.0,65.2,76.0,71.3,65.2,100,84,61,30.03,29.91,7,2,15,0.08
2014-9-12,80.7,74.8,70.8,74.9,72.0,68.4,100,91,76,30.09,29.95,7,3,12,0.01
2014-9-13,81.2,73.3,69.4,76.4,71.0,66.3,100,93,82,30.16,30.02,9,2,16,0.04
2014-9-14,72.5,66.4,61.3,67.0,60.4,56.6,93,81,67,30.26,30.16,9,4,17,0.00
2014-9-15,75.1,67.9,62.6,67.6,64.5,60.5,98,90,73,30.24,30.08,3,1,6,0.04
2014-9-16,83.6,74.2,67.1,71.2,67.3,63.7,100,81,52,30.08,29.92,7,1,10,0.01
2014-9-17,79.0,71.6,66.0,69.0,66.6,63.4,96,85,68,29.98,29.89,7,3,12,0.00
2014-9-18,81.6,69.9,59.5,66.2,62.7,58.7,100,80,52,30.05,29.92,4,1,8,0.00
2014-9-19,80.7,70.2,62.1,64.8,61.6,57.8,95,76,52,30.23,30.05,8,2,12,0.00
2014-9-20,80.7,69.0,58.1,65.1,61.1,57.3,99,78,53,30.23,29.96,9,3,13,0.00
2014-9-21,87.4,74.8,64.7,68.7,65.4,61.6,97,75,50,29.96,29.75,7,4,11,0.00
2014-9-22,76.8,70.4,63.7,70.1,59.9,52.6,97,71,45,30.13,29.83,8,3,12,0.03
2014-9-23,65.2,60.7,56.5,60.5,53.0,48.0,97,76,67,30.33,30.12,9,5,14,0.10
2014-9-24,63.9,59.5,55.1,63.9,59.2,54.3,100,99,96,30.30,30.21,9,6,16,1.51
2014-9-25,69.3,65.5,63.5,65.3,64.0,62.8,100,95,84,30.25,30.17,8,5,12,0.03
2014-9-26,76.8,67.1,61.0,65.9,63.3,59.9,100,89,61,30.21,30.14,9,4,14,0.01
2014-9-27,77.2,65.9,56.3,63.6,60.6,56.0,100,85,59,30.22,30.14,8,2,12,0.01
2014-9-28,79.0,66.0,54.1,65.3,60.0,53.6,100,84,53,30.19,30.06,5,1,10,0.00
2014-9-29,73.2,66.7,62.4,67.4,64.2,61.7,100,92,70,30.06,29.95,5,0,7,0.04
2014-9-30,75.3,66.4,60.2,66.7,64.0,59.3,100,93,73,29.95,29.84,3,1,7,0.01
2014-10-1,78.8,66.1,56.0,68.0,62.1,55.7,100,88,63,30.03,29.91,4,0,7,0.00
2014-10-2,83.8,69.2,58.4,70.7,65.1,58.1,100,88,60,30.11,30.01,3,0,5,0.21
2014-10-3,83.2,73.1,64.8,71.3,67.2,64.8,100,84,57,30.06,29.75,7,2,13,0.01
2014-10-4,74.2,66.6,51.3,70.4,54.2,35.3,100,68,30,29.89,29.65,11,4,17,0.28
2014-10-5,66.0,52.6,40.2,46.5,40.8,36.5,96,68,35,30.04,29.87,5,2,10,0.00
2014-10-6,75.1,58.7,41.5,53.6,47.7,40.7,100,71,39,30.10,30.01,7,2,13,0.00
2014-10-7,79.6,67.0,53.2,62.3,56.9,50.6,97,72,49,30.14,29.98,9,3,16,0.00
2014-10-8,82.8,70.7,60.9,66.6,62.8,57.6,98,78,50,30.03,29.91,7,2,12,0.00
2014-10-9,79.6,64.8,50.1,59.4,53.1,47.7,97,69,36,30.17,30.03,5,1,7,0.00
2014-10-10,82.4,70.1,55.4,67.3,62.6,54.6,99,79,56,30.11,29.96,13,2,20,0.77
2014-10-11,84.7,70.4,59.0,73.2,66.9,57.8,100,90,62,30.09,29.90,10,4,14,0.31
2014-10-12,62.1,59.6,57.2,61.8,59.0,56.1,100,98,95,30.23,30.09,7,3,12,0.02
2014-10-13,80.9,69.6,58.7,70.0,65.5,58.7,100,88,67,30.25,30.13,4,1,7,0.00
2014-10-14,77.2,73.5,70.4,75.4,72.1,69.5,98,96,83,30.15,29.89,9,4,14,0.48
2014-10-15,74.6,65.6,58.3,72.9,64.8,57.7,100,97,91,29.89,29.80,10,3,14,2.04
2014-10-16,70.1,59.7,51.4,60.8,56.0,51.4,100,89,63,29.84,29.75,5,1,9,0.01
2014-10-17,73.0,60.6,48.0,57.7,54.0,47.7,100,81,51,29.92,29.79,5,2,12,0.01
2014-10-18,76.0,62.1,50.8,63.2,52.6,46.1,100,74,47,29.89,29.73,10,3,19,0.00
2014-10-19,63.7,54.0,44.1,47.8,45.0,41.7,94,73,45,30.14,29.89,10,3,17,0.00
2014-10-20,70.1,53.2,38.2,53.3,45.3,37.5,100,79,42,30.18,29.98,6,1,12,0.00
2014-10-21,73.5,61.8,50.1,59.2,52.6,43.6,100,75,43,29.97,29.81,9,2,12,0.00
2014-10-22,65.8,57.2,50.2,48.2,44.4,42.1,81,63,46,30.01,29.90,12,7,21,0.00
2014-10-23,68.3,55.7,44.9,48.8,44.5,42.0,91,68,47,30.02,29.90,9,4,17,0.00
2014-10-24,70.4,55.9,44.8,52.6,46.6,41.9,94,73,41,30.06,29.94,6,1,0,0.00
2014-10-25,69.6,50.2,39.5,51.1,44.5,38.7,100,84,41,30.02,29.85,5,1,8,0.00
2014-10-26,76.1,61.4,46.2,56.2,45.5,35.1,94,62,24,29.97,29.81,15,3,21,0.00
2014-10-27,74.6,54.5,38.2,56.7,43.8,36.2,100,74,28,30.13,29.97,3,0,6,0.00
2014-10-28,82.6,63.2,44.8,65.0,55.9,44.0,100,80,51,30.16,30.02,6,1,11,0.00
2014-10-29,77.6,66.4,57.8,62.9,59.9,54.8,97,81,53,30.01,29.87,8,2,17,0.27
2014-10-30,66.9,57.3,46.4,55.4,48.8,42.5,96,76,44,30.05,29.96,8,2,12,0.00
2014-10-31,63.9,51.9,42.9,46.8,44.6,40.7,96,78,51,29.99,29.76,6,2,8,0.00
2014-11-1,50.7,47.6,44.9,46.0,43.6,37.9,98,87,70,29.92,29.67,14,6,19,0.36
2014-11-2,52.3,45.1,39.3,37.5,29.4,24.5,71,55,35,30.31,29.92,13,6,22,0.00
2014-11-3,61.8,45.4,30.0,39.3,31.8,25.6,94,64,25,30.43,30.30,5,1,8,0.00
2014-11-4,67.3,52.5,36.8,45.4,39.2,34.7,98,64,35,30.35,30.23,8,2,14,0.00
2014-11-5,69.9,57.5,44.6,56.1,49.5,39.9,96,76,55,30.30,30.14,8,1,14,0.00
2014-11-6,69.9,61.6,50.8,63.9,58.3,41.4,97,89,70,30.14,29.71,10,4,17,0.04
2014-11-7,59.6,49.5,40.3,41.4,38.5,34.3,92,68,42,30.07,29.84,11,4,19,0.01
2014-11-8,59.3,45.8,31.0,44.6,37.4,29.5,97,75,45,30.11,29.97,5,1,10,0.00
2014-11-9,60.4,49.1,38.6,48.0,43.0,37.2,98,82,53,30.04,29.93,6,1,9,0.00
2014-11-10,65.3,48.5,34.4,50.2,41.7,33.6,100,81,46,30.15,30.04,7,1,11,0.00
2014-11-11,68.8,56.9,43.6,62.1,54.1,42.8,100,91,73,30.05,29.90,6,2,10,0.01
2014-11-12,74.7,63.1,55.7,61.5,53.8,41.5,100,75,46,30.02,29.90,7,2,10,0.01
2014-11-13,59.6,50.9,45.2,50.9,40.7,36.0,77,68,58,30.08,29.99,8,4,14,0.00
2014-11-14,45.1,38.4,31.3,36.4,27.4,16.3,94,66,42,30.34,30.04,11,6,17,0.02
2014-11-15,44.9,34.1,26.3,24.5,19.2,15.9,87,57,33,30.47,30.34,6,2,12,0.00
2014-11-16,48.6,39.1,25.8,42.8,33.5,23.5,98,82,50,30.42,30.08,4,1,6,0.14
2014-11-17,66.3,53.6,43.3,66.3,52.6,37.7,100,97,72,30.08,29.58,11,4,24,0.45
2014-11-18,46.1,33.4,21.9,36.9,18.2,9.1,80,55,31,30.35,29.85,12,5,18,0.00
2014-11-19,41.2,30.9,16.9,24.0,16.1,11.1,93,59,31,30.45,30.23,6,2,12,0.00
2014-11-20,57.8,42.6,27.5,32.7,26.0,19.6,83,54,31,30.24,30.00,10,3,17,0.00
2014-11-21,47.7,35.5,25.7,30.6,20.5,9.6,94,61,22,30.57,30.15,11,3,17,0.00
2014-11-22,53.1,35.2,20.2,29.5,19.9,12.0,93,61,20,30.61,30.34,5,1,11,0.00
2014-11-23,64.5,48.4,32.2,64.5,44.8,26.4,100,88,71,30.34,29.74,10,2,14,0.65
2014-11-24,72.5,65.6,59.6,65.5,62.8,59.6,100,91,72,29.91,29.73,10,4,18,0.03
2014-11-25,63.4,57.9,49.4,61.3,52.7,42.6,97,84,59,30.12,29.88,9,2,12,0.27
2014-11-26,51.3,44.8,36.0,51.1,44.2,35.2,100,98,93,30.08,29.87,14,6,19,2.08
2014-11-27,45.5,41.1,35.6,43.8,38.2,27.8,100,90,68,30.27,30.01,10,3,14,0.06
2014-11-28,43.6,34.9,27.3,28.1,24.4,21.3,91,68,42,30.39,30.26,10,3,14,0.01
2014-11-29,58.7,37.8,25.7,36.0,29.0,24.3,97,74,42,30.36,30.25,7,2,14,0.00
2014-11-30,65.0,47.3,30.3,46.8,39.1,29.2,99,76,45,30.33,30.20,10,2,17,0.00
2014-12-1,75.8,56.7,40.1,55.3,47.8,38.5,98,75,47,30.36,30.24,6,2,10,0.00
2014-12-2,56.9,48.9,45.8,51.8,46.1,43.3,99,91,75,30.47,30.31,9,4,14,0.00
2014-12-3,59.3,51.5,45.7,56.7,50.6,45.2,100,97,89,30.34,30.16,6,1,11,0.01
2014-12-4,55.3,48.8,44.2,53.8,40.5,33.3,99,76,45,30.44,30.27,8,3,11,0.01
2014-12-5,55.0,48.2,40.2,44.6,39.6,34.2,83,72,58,30.50,30.34,5,2,7,0.00
2014-12-6,57.0,52.2,46.1,56.2,50.1,42.4,100,93,84,30.34,30.04,11,1,17,0.19
2014-12-7,53.3,44.9,36.5,52.0,32.8,23.0,96,64,47,30.47,30.09,17,10,31,0.02
2014-12-8,46.2,40.6,36.3,37.8,31.6,22.9,97,71,56,30.45,30.15,12,8,19,0.05
2014-12-9,44.2,40.5,35.8,43.4,39.8,35.0,99,97,95,30.14,29.91,9,5,13,0.63
2014-12-10,51.3,43.3,34.7,41.2,32.9,26.6,94,68,46,30.00,29.91,12,6,20,0.00
2014-12-11,48.2,36.7,29.0,26.8,23.6,16.0,82,62,35,30.13,29.98,11,4,17,0.00
2014-12-12,56.0,39.1,25.0,27.6,21.6,17.6,85,54,22,30.23,30.09,9,3,17,0.00
2014-12-13,59.5,40.5,26.4,33.6,27.6,22.6,94,66,28,30.15,30.01,7,1,10,0.00
2014-12-14,56.6,42.3,28.4,37.6,32.1,24.7,92,69,44,30.08,29.98,6,2,10,0.00
2014-12-15,59.2,43.4,30.3,42.5,36.4,28.5,97,78,51,30.15,30.04,4,1,10,0.00
2014-12-16,51.4,43.2,31.2,49.9,42.3,30.2,100,97,78,30.09,29.91,5,1,10,0.37
2014-12-17,59.3,48.0,37.6,46.2,40.0,35.4,99,76,46,30.11,29.98,10,3,13,0.03
2014-12-18,51.1,40.9,30.0,35.4,30.1,24.5,94,69,36,30.20,30.08,6,1,11,0.00
2014-12-19,52.0,42.2,35.0,35.8,30.4,24.5,89,66,38,30.22,30.11,10,2,14,0.00
2014-12-20,38.8,36.4,34.6,36.4,32.8,27.5,95,87,74,30.32,30.22,6,2,8,0.07
2014-12-21,49.9,42.3,36.8,38.3,36.3,34.0,96,80,62,30.34,30.23,6,2,10,0.00
2014-12-22,41.5,38.2,36.6,38.9,37.4,34.3,100,97,79,30.23,30.05,11,5,14,0.67
2014-12-23,46.4,41.5,37.8,46.4,41.5,37.8,100,100,100,30.10,29.96,5,2,6,0.76
2014-12-24,65.2,56.6,46.4,65.2,56.6,46.4,100,100,100,29.95,29.66,7,2,12,1.50
2014-12-25,63.7,52.4,34.3,63.7,43.2,32.5,100,73,43,30.27,29.67,18,4,24,0.07
2014-12-26,58.1,40.8,28.5,45.9,33.9,27.8,100,80,41,30.39,30.26,4,1,8,0.01
2014-12-27,62.1,45.6,29.4,46.5,37.3,28.7,100,76,39,30.36,30.17,5,1,10,0.00
2014-12-28,63.9,55.7,47.3,57.6,51.9,41.4,99,87,76,30.18,29.99,7,2,12,0.00
2014-12-29,55.6,49.4,40.9,55.3,49.3,40.9,100,100,98,30.21,30.04,9,4,13,0.76
2014-12-30,40.8,37.0,27.8,40.8,35.2,26.3,100,93,78,30.46,30.20,12,5,17,0.05
2014-12-31,45.7,33.0,24.8,36.7,24.9,16.6,98,76,32,30.49,30.36,7,1,10,0.01
2015-1-1,50.7,37.0,22.4,36.4,28.9,21.0,98,75,45,30.37,30.22,8,2,14,0.00
2015-1-2,55.9,48.1,40.8,43.7,40.3,36.4,91,75,55,30.38,30.22,3,0,6,0.00